Location: The Saddle
(36.8333°N, 80.3417°W)
Time: 06:18:08
(UTC-04:00)

Courier 1B - Pass Details

Date: 25 September 2024
Orbit: 962 x 1208 km, 28.3° (Epoch: 05 October)

Event Time Altitude Azimuth Distance (km) Brightness Sun altitude
Rises 09:17:28 0° 205° (SSW) 3,630 10.5 23.7°
Reaches altitude 10° 09:21:47 10° 178° (S) 2,679 10.2 24.5°
Maximum altitude 09:24:31 13° 153° (SSE) 2,476 10.6 25.0°
Drops below altitude 10° 09:27:15 10° 127° (SE) 2,696 11.5 25.5°
Sets 09:31:36 0° 101° (E) 3,674 11.8 26.3°
